Temp
79 85 82 82 84 84 84 83 84 84 84 83 84 84 84 83 84 83 83 84 84 83 84 84 84 84 84 84 84 84 84 83 83 84 84 84 84 83 83 84 85 84 83
88 87 83 82 83 83 83 83 84 84 84 83 83 84 83 84 83 83 83 84 83 82 84 84 84 84 84 84 84 84 84 84 84 84 85 85 84 84 84 85 85 83 83
86 86 87 83 83 84 83 84 84 83 84 83 83 83 83 84 83 83 84 83 84 83 84 84 84 84 84 84 83 84 84 84 84 85 86 84 84 84 84 84 83 83 83
89 91 88 83 83 84 84 84 84 83 83 83 83 83 83 83 84 84 84 83 83 84 83 84 84 84 84 83 83 84 83 83 84 84 84 87 87 84 84 83 83 83 83
88 89 85 83 83 83 83 83 84 83 83 85 83 84 84 84 84 84 84 84 84 83 83 84 84 85 85 84 84 84 83 84 82 83 82 82 83 84 84 83 83 83 84
90 88 83 83 83 83 84 83 83 84 84 83 84 84 84 84 84 85 84 85 84 84 84 84 83 83 84 84 84 84 83 84 83 82 83 85 83 84 84 85 85 83 83
90 88 86 83 83 84 84 83 83 83 84 84 85 85 85 84 85 85 85 85 85 84 84 84 83 83 84 84 84 84 84 83 81 76 81 83 82 83 84 83 83 83 83
90 89 87 83 83 84 84 83 83 83 83 84 84 84 85 85 85 85 85 85 85 85 85 84 83 83 83 84 84 84 84 85 82 78 80 83 81 83 83 83 83 83 83
92 88 85 85 84 84 84 84 84 84 84 85 85 85 84 85 85 85 85 85 85 85 85 85 84 84 83 84 84 84 84 85 77 79 80 82 82 83 84 83 83 83 83
79 90 88 89 88 85 85 85 85 85 85 85 85 85 85 85 84 85 83 82 83 84 85 85 84 84 84 84 84 84 84 85 81 78 82 81 82 83 84 83 83 83 83
92 88 86 87 88 84 85 85 84 84 85 85 85 85 84 83 80 75 78 81 81 81 80 81 82 83 84 84 84 84 84 80 79 75 81 80 82 84 83 83 83 83 82
87 91 88 87 83 88 91 84 84 86 86 83 84 86 76 78 75 76 78 79 81 79 79 79 80 81 83 83 84 83 75 78 81 84 82 81 83 84 84 83 83 83 83
91 92 90 91 86 89 86 88 89 89 87 87 83 86 89 76 75 76 74 75 75 78 75 78 79 81 83 79 81 78 78 79 82 79 81 81 82 83 84 83 83 82 82
92 92 92 92 85 86 92 88 87 92 87 85 88 89 85 78 74 76 74 75 76 76 76 76 78 78 81 81 79 80 84 83 80 75 79 81 81 82 83 83 83 83 82
93 94 92 90 85 85 88 90 91 90 90 88 86 87 89 77 75 76 76 74 75 78 79 78 79 79 81 84 85 79 83 82 83 78 79 81 80 81 82 83 83 83 82
95 93 92 89 85 90 90 89 88 88 87 81 76 86 91 76 77 79 78 75 75 78 78 80 80 79 80 84 83 84 83 82 82 83 81 79 81 81 81 83 83 83 83
98 94 89 88 89 87 90 88 88 81 88 86 82 86 93 83 88 82 80 78 77 78 78 78 80 80 79 83 82 84 84 84 84 83 81 81 80 81 81 81 82 82 82
97 89 89 92 92 90 91 88 89 79 81 85 83 81 87 90 88 86 80 78 79 78 79 78 81 81 79 82 82 82 82 83 84 83 82 82 80 82 79 79 79 80 81
96 87 87 88 92 90 89 87 87 85 85 84 80 78 79 89 88 85 80 81 80 78 79 80 79 81 79 79 80 81 81 80 81 85 81 80 80 80 79 77 78 80 80
94 88 86 91 91 87 89 90 85 86 84 86 83 76 77 86 89 86 83 83 81 78 79 80 79 80 79 80 86 83 79 81 82 83 82 82 81 83 82 79 76 77 79
94 87 87 90 91 88 88 85 84 81 87 88 87 84 90 88 89 89 83 85 82 80 80 82 82 79 79 80 75 79 80 82 82 81 82 83 80 83 84 82 78 79 79
93 89 87 88 86 88 85 85 85 84 88 88 82 79 92 87 88 83 85 84 84 84 83 83 83 78 79 83 77 75 72 75 81 83 81 82 82 82 82 83 81 81 80
92 91 88 87 88 88 89 86 90 89 88 87 88 88 89 91 89 90 88 85 83 84 83 82 81 80 75 83 81 76 71 67 67 73 79 81 82 80 81 83 83 82 80
94 95 92 89 88 89 89 88 88 85 83 83 83 78 86 90 87 90 89 87 85 84 82 83 84 82 81 78 81 86 84 75 67 62 69 77 82 82 84 81 81 82 81
100 97 94 89 88 89 88 87 89 85 87 85 87 81 86 86 88 89 87 88 86 83 83 83 84 82 81 80 80 83 83 81 78 68 67 69 69 73 82 75 74 77 80
96 99 97 88 87 88 89 86 85 84 84 85 84 79 80 75 83 88 87 86 87 85 84 86 84 85 82 82 81 81 80 81 80 78 72 74 69 70 72 75 76 74 77
MSLP
1015.39 1015.46 1015.87 1015.95 1015.75 1015.88 1015.99 1016.15 1016.21 1016.27 1016.41 1016.48 1016.44 1016.50 1016.45 1016.45 1016.54 1016.72 1016.84 1016.89 1017.02 1017.20 1017.19 1017.23 1017.22 1017.27 1017.30 1017.33 1017.32 1017.35 1017.54 1017.55 1017.68 1017.74 1017.95 1018.17 1018.08 1018.16 1018.30 1018.33 1018.40 1018.79 1019.03
1014.58 1015.39 1015.92 1015.94 1015.99 1016.09 1016.26 1016.51 1016.48 1016.58 1016.66 1016.74 1016.75 1016.80 1016.92 1016.79 1016.85 1016.94 1017.20 1017.21 1017.34 1017.57 1017.49 1017.55 1017.57 1017.64 1017.59 1017.61 1017.65 1017.67 1017.74 1017.89 1017.88 1018.01 1018.06 1018.17 1018.33 1018.42 1018.46 1018.46 1018.68 1019.18 1019.39
1014.88 1015.24 1015.69 1016.15 1016.22 1016.26 1016.39 1016.67 1016.75 1016.97 1016.95 1016.99 1017.08 1017.13 1017.22 1017.05 1017.15 1017.24 1017.35 1017.50 1017.49 1017.70 1017.76 1017.85 1017.85 1017.86 1017.88 1017.87 1017.97 1017.98 1018.10 1018.19 1018.26 1018.10 1017.99 1018.34 1018.69 1018.77 1018.82 1018.93 1019.25 1019.56 1019.86
1014.47 1014.49 1015.51 1016.31 1016.39 1016.46 1016.66 1016.84 1016.97 1017.27 1017.32 1017.28 1017.44 1017.30 1017.47 1017.34 1017.34 1017.47 1017.54 1017.76 1017.84 1017.85 1018.04 1018.13 1018.16 1018.15 1018.14 1018.10 1018.13 1018.24 1018.47 1018.57 1018.67 1018.58 1018.18 1018.23 1018.73 1019.15 1019.32 1019.42 1019.66 1019.97 1020.24
1014.31 1015.01 1015.93 1016.34 1016.58 1016.72 1016.92 1017.03 1017.16 1017.50 1017.60 1017.49 1017.65 1017.58 1017.55 1017.58 1017.57 1017.68 1017.78 1017.89 1017.95 1018.12 1018.26 1018.26 1018.38 1018.45 1018.36 1018.32 1018.32 1018.42 1018.74 1018.71 1018.69 1018.60 1018.53 1018.45 1018.97 1019.53 1019.69 1019.83 1020.09 1020.28 1020.37
1014.44 1015.52 1016.11 1016.34 1016.67 1016.91 1017.16 1017.31 1017.45 1017.67 1017.82 1017.90 1017.83 1017.74 1017.86 1017.85 1017.87 1017.92 1017.98 1017.96 1018.11 1018.21 1018.36 1018.34 1018.60 1018.69 1018.68 1018.58 1018.51 1018.62 1019.00 1019.04 1018.84 1018.84 1018.48 1018.69 1019.28 1019.84 1019.97 1020.00 1020.25 1020.57 1020.83
1014.62 1015.51 1016.29 1016.44 1016.67 1017.04 1017.36 1017.54 1017.67 1017.87 1017.90 1017.96 1017.94 1017.91 1018.01 1018.05 1018.02 1018.11 1018.13 1018.17 1018.24 1018.35 1018.51 1018.59 1018.77 1018.84 1018.76 1018.82 1018.80 1018.72 1018.98 1018.91 1019.22 1018.95 1018.89 1019.06 1019.71 1020.15 1020.18 1020.42 1020.62 1020.88 1021.11
1014.83 1015.55 1016.34 1016.72 1016.61 1017.25 1017.38 1017.69 1017.88 1018.02 1018.02 1018.04 1018.04 1018.08 1018.09 1018.17 1018.35 1018.47 1018.51 1018.39 1018.41 1018.53 1018.58 1018.81 1018.92 1018.91 1018.90 1018.86 1018.92 1018.84 1018.86 1019.31 1019.48 1019.82 1019.22 1019.36 1019.97 1020.28 1020.51 1020.72 1020.85 1021.04 1021.27
1014.83 1015.53 1016.22 1016.49 1016.60 1017.37 1017.50 1017.73 1017.91 1018.06 1018.09 1017.98 1017.97 1018.04 1018.10 1018.20 1018.57 1018.75 1018.93 1018.88 1018.62 1018.63 1018.77 1018.87 1018.93 1018.99 1018.98 1018.94 1019.05 1018.98 1018.77 1018.97 1019.95 1019.50 1019.81 1019.95 1020.14 1020.36 1020.66 1020.88 1021.04 1021.29 1021.44
1015.33 1015.17 1015.57 1016.12 1016.59 1017.14 1017.48 1017.71 1017.89 1018.04 1018.04 1017.97 1017.82 1017.84 1018.03 1018.16 1018.34 1018.56 1018.86 1019.14 1018.94 1018.81 1018.81 1019.02 1019.12 1019.13 1019.05 1019.05 1019.12 1019.02 1018.85 1018.83 1019.71 1019.74 1019.81 1020.10 1020.25 1020.53 1020.70 1020.95 1021.16 1021.45 1021.65
1015.06 1015.49 1015.80 1015.96 1016.41 1016.66 1017.06 1017.63 1017.82 1017.91 1017.90 1017.86 1017.66 1017.67 1017.76 1017.93 1018.33 1018.95 1019.09 1019.14 1019.10 1018.84 1019.04 1019.31 1019.32 1019.30 1019.20 1019.13 1019.25 1019.28 1019.15 1019.16 1019.61 1020.07 1019.98 1020.09 1020.35 1020.59 1020.77 1020.98 1021.19 1021.50 1021.81
1015.08 1015.10 1015.84 1016.03 1016.62 1016.48 1016.57 1017.19 1017.23 1017.35 1017.39 1017.41 1017.23 1017.17 1017.65 1017.65 1016.83 1018.76 1019.31 1019.15 1018.92 1018.92 1019.20 1019.42 1019.41 1019.36 1019.20 1018.97 1019.28 1019.34 1019.57 1019.30 1019.33 1019.39 1019.86 1020.16 1020.36 1020.51 1020.69 1020.93 1021.18 1021.46 1021.69
1014.21 1014.67 1015.56 1015.69 1015.87 1016.12 1016.18 1016.45 1016.45 1016.47 1016.66 1016.72 1016.96 1016.89 1016.85 1017.74 1017.50 1018.44 1018.46 1018.54 1018.68 1018.73 1019.24 1019.33 1019.28 1019.13 1018.91 1019.00 1019.30 1019.42 1019.55 1019.55 1019.42 1019.38 1019.95 1020.12 1020.24 1020.46 1020.61 1020.89 1021.19 1021.43 1021.64
1013.61 1014.30 1015.15 1015.44 1015.92 1015.86 1015.34 1015.58 1015.62 1015.71 1016.15 1016.26 1016.24 1016.51 1016.46 1016.89 1017.42 1017.70 1018.40 1018.35 1018.50 1018.73 1019.06 1019.24 1019.15 1019.12 1018.97 1018.77 1018.97 1019.33 1019.21 1019.16 1019.58 1019.92 1020.01 1020.16 1020.26 1020.30 1020.45 1020.66 1020.96 1021.30 1021.56
1013.04 1013.79 1014.97 1015.54 1015.94 1015.84 1015.51 1015.55 1015.48 1015.84 1015.86 1016.17 1016.29 1016.13 1015.82 1016.85 1017.05 1017.85 1017.73 1017.82 1018.18 1018.42 1018.70 1018.85 1018.83 1018.75 1018.68 1018.37 1018.54 1019.08 1018.82 1019.00 1019.16 1019.74 1019.84 1020.08 1020.26 1020.33 1020.39 1020.48 1020.74 1021.06 1021.35
1012.68 1013.58 1014.87 1015.68 1015.89 1015.82 1015.91 1015.89 1015.96 1016.06 1016.02 1016.65 1016.89 1016.02 1015.34 1016.50 1016.78 1016.95 1017.31 1017.37 1017.85 1018.18 1018.44 1018.38 1018.48 1018.47 1018.53 1018.17 1018.13 1018.35 1018.49 1018.85 1018.88 1019.10 1019.60 1020.08 1020.31 1020.46 1020.47 1020.46 1020.45 1020.65 1021.00
1012.29 1013.53 1014.96 1015.51 1015.63 1016.06 1016.11 1016.25 1016.29 1016.66 1016.18 1015.98 1016.23 1015.49 1014.93 1015.51 1015.64 1016.39 1016.97 1017.26 1017.46 1017.76 1018.10 1018.37 1018.37 1018.44 1018.57 1018.02 1018.27 1018.21 1018.17 1018.52 1018.72 1018.91 1019.46 1019.81 1020.14 1020.47 1020.56 1020.43 1020.50 1020.51 1020.78
1012.12 1013.64 1014.65 1014.97 1015.26 1015.68 1015.85 1016.10 1016.15 1016.61 1016.20 1015.67 1015.55 1015.82 1015.69 1014.97 1015.27 1015.90 1016.81 1017.03 1017.19 1017.54 1018.01 1018.20 1018.26 1018.32 1018.30 1018.12 1018.05 1018.26 1018.23 1018.40 1018.57 1018.67 1018.92 1019.18 1019.78 1020.08 1020.53 1020.65 1020.68 1020.62 1020.69
1012.10 1013.53 1014.38 1014.65 1014.70 1015.14 1015.41 1015.79 1015.84 1015.83 1015.69 1015.26 1016.27 1016.61 1017.24 1016.10 1015.20 1015.76 1016.52 1016.58 1017.07 1017.48 1017.48 1017.79 1017.96 1018.05 1018.14 1018.19 1018.01 1018.04 1018.25 1018.45 1018.43 1018.45 1018.72 1019.02 1019.26 1019.45 1019.99 1020.44 1020.63 1020.85 1020.92
1012.10 1013.43 1014.27 1014.62 1014.68 1015.01 1015.43 1015.63 1015.79 1015.62 1015.34 1014.92 1016.33 1016.29 1016.85 1016.32 1015.14 1015.55 1016.23 1016.23 1016.86 1017.51 1017.61 1017.64 1017.85 1017.99 1017.96 1017.82 1017.55 1017.79 1018.02 1018.20 1017.99 1018.16 1018.36 1018.55 1018.81 1018.89 1019.17 1019.72 1020.17 1020.46 1020.74
1012.04 1013.49 1014.12 1014.50 1014.78 1015.12 1015.53 1015.63 1015.42 1015.52 1015.16 1014.69 1015.20 1015.93 1015.86 1015.40 1015.07 1015.30 1015.90 1016.02 1016.47 1017.23 1017.38 1017.54 1017.54 1017.62 1017.73 1017.65 1017.88 1017.76 1018.06 1018.11 1017.98 1017.97 1017.79 1017.84 1018.17 1018.28 1018.43 1018.76 1019.31 1019.67 1020.07
1011.60 1012.83 1013.81 1014.29 1014.93 1015.23 1015.29 1015.23 1015.45 1015.29 1014.99 1014.80 1014.82 1015.09 1014.62 1014.93 1015.11 1015.69 1015.76 1016.26 1016.31 1016.76 1017.05 1017.13 1017.37 1017.57 1017.42 1017.15 1017.69 1018.04 1018.09 1017.94 1017.69 1017.68 1017.49 1017.84 1017.76 1017.75 1017.99 1018.08 1018.49 1018.72 1018.99
1010.89 1011.92 1012.89 1013.71 1014.30 1014.70 1014.95 1015.21 1015.08 1015.25 1015.10 1014.93 1014.86 1014.87 1014.66 1014.83 1015.16 1015.21 1015.50 1015.92 1016.17 1016.34 1016.74 1017.05 1017.25 1017.31 1017.32 1016.93 1017.30 1017.72 1017.79 1018.57 1019.70 1018.93 1017.97 1017.73 1017.67 1017.44 1017.32 1017.57 1017.88 1018.07 1018.52
1010.10 1010.99 1011.90 1012.88 1013.67 1014.26 1014.71 1014.83 1014.75 1015.07 1015.28 1015.15 1014.96 1014.86 1014.67 1014.39 1014.83 1015.03 1015.45 1015.65 1015.83 1016.29 1016.50 1016.73 1016.95 1017.11 1017.13 1016.99 1017.06 1016.84 1016.62 1017.94 1019.52 1019.86 1018.95 1018.23 1017.34 1017.43 1017.36 1017.59 1017.75 1017.27 1017.41
1008.83 1009.94 1010.87 1011.97 1012.83 1013.55 1014.15 1014.57 1014.67 1014.95 1014.87 1014.74 1014.85 1015.19 1014.05 1014.36 1014.15 1014.81 1015.54 1015.74 1015.88 1016.12 1016.28 1016.42 1016.60 1016.95 1016.98 1017.04 1016.98 1016.53 1016.37 1016.38 1016.59 1017.83 1018.07 1017.82 1017.21 1017.50 1017.42 1018.20 1018.80 1017.45 1017.46
1008.59 1009.11 1010.00 1011.22 1012.25 1012.92 1013.50 1014.15 1014.53 1014.88 1014.77 1014.70 1014.81 1014.71 1015.53 1014.31 1015.45 1014.37 1015.37 1015.90 1015.98 1015.99 1016.09 1015.96 1016.17 1016.47 1016.64 1016.73 1016.56 1016.35 1016.33 1016.04 1016.03 1016.16 1016.71 1017.46 1017.51 1016.95 1018.03 1018.41 1018.14 1017.92 1017.71
Wind_Speed
5 5 8 7 10 9 10 9 11 10 11 10 10 10 11 12 13 13 11 11 12 10 11 13 13 12 11 11 13 13 14 15 17 17 16 14 14 13 12 16 19 16 17
8 11 10 9 10 11 12 10 10 10 11 10 10 9 9 11 13 13 11 12 13 11 11 13 12 12 11 11 11 11 12 13 14 16 17 15 13 9 6 12 19 14 16
4 13 12 10 10 10 11 10 11 10 11 11 9 10 8 10 14 12 14 11 12 12 11 12 12 12 11 10 9 9 10 10 12 16 19 9 9 15 16 19 18 15 15
4 14 13 9 10 9 10 10 12 9 11 11 10 10 9 11 11 12 13 11 10 12 12 11 11 12 11 9 7 7 8 10 6 5 1 10 11 13 15 16 15 15 14
8 16 13 11 10 9 9 10 11 10 9 11 10 10 10 11 13 12 13 12 12 11 11 10 10 10 10 9 5 5 8 8 3 6 4 6 7 11 13 14 14 13 14
17 14 13 13 11 9 9 9 10 9 9 9 9 10 9 11 12 12 12 13 12 10 10 10 9 8 9 7 4 1 6 5 3 6 2 11 10 11 12 11 12 14 14
15 14 12 12 13 11 10 10 9 9 9 9 8 9 9 9 11 10 10 10 11 11 9 10 7 7 6 5 3 2 2 5 8 7 6 10 10 10 9 12 14 13 12
10 14 12 11 15 11 12 10 8 8 7 7 6 7 8 8 8 9 9 10 10 10 9 9 8 7 6 4 6 4 3 1 10 0 4 8 10 11 11 12 12 12 11
12 14 12 10 13 11 11 10 7 7 6 5 5 5 7 9 9 9 7 7 9 9 8 8 7 6 5 5 5 4 6 5 9 3 3 7 10 11 12 10 10 10 10
7 9 7 12 12 10 9 10 9 6 5 6 7 8 8 10 10 12 10 6 7 5 7 6 6 5 4 5 6 4 5 6 11 7 3 7 11 11 10 10 9 9 9
7 13 4 8 11 9 10 9 9 9 9 9 9 11 8 6 8 14 6 2 1 5 6 4 2 1 3 4 6 5 2 3 9 5 3 11 10 11 10 9 10 9 8
9 9 9 6 2 8 9 11 10 9 8 7 8 6 4 4 6 10 8 8 9 5 2 2 4 5 5 2 4 5 0 2 2 8 6 12 12 11 11 10 10 9 9
15 10 9 4 3 11 7 8 6 6 6 7 9 7 3 6 7 4 5 5 3 6 2 4 5 4 4 2 3 4 4 5 2 1 8 11 11 10 11 10 9 10 11
14 16 10 6 3 8 4 3 5 4 5 4 4 5 4 7 7 5 4 4 4 2 3 3 3 4 4 4 7 6 8 4 4 3 7 11 10 10 10 11 11 10 10
12 15 11 5 2 6 5 3 4 3 2 2 1 4 4 9 3 7 5 4 4 5 4 4 6 5 4 5 7 10 5 6 6 5 4 12 9 8 10 13 13 12 11
12 15 12 10 5 5 2 4 4 3 2 5 1 8 2 2 6 5 5 4 3 3 5 4 4 3 4 5 3 1 5 7 8 7 5 6 10 7 9 12 14 14 13
11 14 12 10 10 6 4 4 3 3 5 4 1 8 2 6 2 6 4 3 3 4 6 3 5 4 4 3 5 5 3 6 5 4 8 6 7 9 7 11 11 12 13
12 14 10 9 14 10 8 5 5 4 4 6 5 6 9 5 6 4 3 3 2 5 4 5 5 5 4 4 4 4 3 3 7 7 5 5 6 7 8 9 12 11 11
11 13 8 7 9 12 7 6 6 7 6 6 4 6 10 3 5 6 2 4 5 4 4 4 2 4 4 5 4 6 5 5 5 6 6 7 7 6 7 9 12 12 10
14 12 9 8 3 7 5 2 2 4 4 5 9 10 7 4 4 5 3 5 5 4 3 3 4 4 5 5 4 4 3 4 4 4 7 7 7 8 8 9 6 8 14
13 14 8 4 2 2 5 5 4 4 4 4 3 2 7 5 1 1 3 3 5 4 4 5 5 5 4 4 3 2 5 7 6 5 5 5 8 9 7 8 7 6 8
15 15 13 10 9 5 3 4 3 4 2 2 3 4 3 6 0 3 4 3 4 5 4 4 3 1 3 3 0 3 2 3 4 6 6 6 9 6 7 7 9 8 7
17 14 14 10 11 9 6 4 3 2 3 3 3 4 4 4 3 4 4 3 4 3 4 4 4 5 2 2 5 3 1 5 7 8 3 6 10 8 8 9 10 8 6
17 16 16 14 9 9 7 5 3 2 3 3 2 7 6 6 7 5 2 4 4 2 3 2 4 1 2 2 2 6 4 12 6 4 4 9 10 9 10 8 9 10 9
15 16 16 15 14 8 9 6 2 4 6 5 4 6 6 4 8 8 6 3 4 3 4 5 1 4 2 3 3 2 3 4 6 4 4 4 9 8 5 10 9 6 4
8 14 16 16 12 11 8 10 7 4 7 4 1 7 5 4 8 6 7 4 4 3 5 4 5 4 5 3 4 4 1 2 3 2 2 5 6 4 0 7 6 3 5
Wind_Direction
191 156 104 109 118 117 95 85 88 85 80 79 84 86 81 89 89 90 93 97 96 103 95 101 103 96 90 84 89 89 92 103 107 109 113 111 104 106 116 116 100 99 98
129 113 111 109 106 106 100 95 89 79 85 83 89 87 89 95 95 96 94 94 96 95 104 100 99 98 93 98 95 103 106 111 115 116 109 100 95 97 108 95 92 102 101
170 131 119 109 108 104 106 99 91 83 89 91 91 91 93 102 103 106 103 103 104 104 100 97 96 97 92 94 101 113 113 116 129 138 131 122 92 97 94 99 105 106 104
173 137 116 114 105 106 100 102 93 92 91 95 89 92 97 103 109 108 97 101 97 109 110 106 103 101 99 101 110 115 116 113 118 164 239 127 107 104 104 107 111 113 111
83 94 111 111 112 111 109 105 102 99 99 98 96 91 101 103 104 106 109 106 109 113 105 112 107 104 105 105 105 129 112 99 149 211 250 111 108 115 112 116 119 124 120
102 101 111 117 119 113 116 108 106 111 108 107 105 97 97 108 109 113 118 117 110 104 105 103 112 116 109 111 123 144 106 111 320 324 101 106 102 124 129 131 124 115 115
104 115 112 121 121 122 117 110 117 117 123 120 110 108 106 108 112 111 112 110 111 115 113 109 100 97 114 131 151 210 146 109 89 4 47 102 110 124 121 112 119 119 118
103 115 129 132 117 125 125 127 136 126 123 123 125 125 123 128 123 116 114 111 110 110 115 114 107 98 100 136 170 219 265 184 79 22 25 107 123 133 130 125 127 130 131
129 132 143 139 126 136 136 140 143 149 155 149 162 168 163 154 144 130 124 127 122 121 117 118 117 109 104 118 159 204 260 298 143 190 109 111 128 129 133 134 135 137 134
251 84 144 139 146 153 156 156 160 180 183 186 205 210 198 184 168 130 81 77 94 90 130 130 120 131 140 130 160 200 272 309 129 143 188 120 132 134 135 136 141 146 145
130 140 144 137 149 170 138 158 171 191 204 208 217 229 220 214 127 105 181 211 259 124 94 69 50 231 177 176 179 171 293 330 114 130 112 123 135 139 143 150 149 151 157
178 183 135 153 236 182 169 162 189 187 200 206 212 218 205 85 104 148 178 225 236 191 247 256 273 287 241 166 167 171 123 335 320 149 128 144 145 146 150 151 159 159 160
191 133 161 124 252 200 171 186 189 192 199 193 203 220 250 125 151 180 189 201 211 208 193 256 261 244 3 178 129 210 164 217 173 1 132 131 132 141 157 156 159 168 162
164 141 170 162 271 324 167 208 210 169 162 156 223 213 219 143 179 141 205 185 196 181 210 236 255 245 262 222 189 183 208 158 123 118 149 149 150 153 162 166 163 166 173
157 139 149 158 282 299 26 254 37 51 25 209 274 237 242 91 184 166 174 182 215 169 192 189 221 214 230 262 161 164 202 163 181 167 156 163 163 162 178 172 170 170 179
157 131 143 166 197 252 241 9 354 7 294 81 262 278 275 164 173 139 155 193 188 207 184 197 203 233 209 236 171 226 172 181 188 150 141 167 176 185 193 185 176 178 177
136 128 149 169 182 211 220 152 251 44 330 283 157 249 172 128 99 117 137 191 195 184 183 217 196 216 258 224 193 219 187 146 151 169 148 179 181 171 173 179 172 185 185
130 133 150 204 168 178 189 163 227 161 240 268 210 10 300 126 120 120 137 131 157 147 165 178 196 201 206 232 210 210 191 193 171 172 173 169 171 183 191 194 196 192 190
139 129 157 221 225 156 166 170 195 224 211 239 72 34 312 12 112 85 163 151 147 162 169 192 148 199 189 231 206 202 184 195 185 176 179 171 189 178 168 210 210 222 216
126 137 163 212 130 156 132 196 225 228 253 266 125 145 261 266 82 99 145 126 117 150 157 187 191 185 211 208 213 204 166 201 173 177 184 187 194 192 180 164 187 210 221
139 144 152 176 94 332 159 201 225 197 224 266 74 189 177 138 183 17 174 125 129 137 173 194 200 211 242 229 199 173 165 170 194 201 196 181 171 194 196 174 174 199 198
152 150 164 180 176 214 212 255 134 297 115 273 106 315 233 127 94 8 80 155 95 130 169 169 219 314 257 169 93 91 212 260 209 203 187 188 193 179 193 194 194 199 187
156 163 163 176 173 191 222 285 134 1 307 295 212 210 154 174 191 158 109 133 139 187 166 186 196 230 277 145 151 143 232 53 11 319 330 199 191 186 184 201 196 189 179
158 167 162 165 176 176 209 241 203 164 258 298 165 34 168 181 159 168 175 166 131 200 164 205 203 226 249 265 241 209 185 138 175 290 315 254 180 193 203 188 213 202 172
168 170 168 167 170 192 178 211 207 223 266 202 145 199 177 179 171 152 166 204 178 191 189 161 135 207 293 291 292 292 186 211 154 135 189 161 51 266 287 118 228 216 164
194 179 169 162 166 168 185 180 221 265 242 286 124 204 101 324 263 133 141 217 190 173 189 201 164 186 227 269 291 290 190 224 260 258 160 147 192 268 82 62 227 217 179